User: anonymous   Login
Location: Unspecified
(0.0000°N, 0.0000°E)
Time: 15:33:38
(UTC+00:00)
Language:

Polar BEAR P87-1 - Orbit

View from above orbital plane
View from above orbital plane
View from above satellite
View from above satellite

Ground track
Ground track

The orbit data is extracted from the following two-line orbital elements,

1 17070U 86088A   18115.93292144 +.00000072 +00000-0 +63786-4 0  9998
2 17070 089.5261 311.6963 0036848 243.2801 242.7642 13.74753895576722
Epoch (UTC): 25 April 2018 22:23:24
Eccentricity: 0.0036848
inclination: 89.5261°
perigee height: 955 km
apogee height: 1009 km
right ascension of ascending node: 311.6963°
argument of perigee: 243.2801°
revolutions per day: 13.74753895
mean anomaly at epoch: 242.7642°
orbit number at epoch: 57672

The dashed part of the orbit path shows where the satellite is in the earth's shadow,  

DLR